Regional Weather Roundup
Issued by NWS

Home | Current Version | Previous Version | Text Only | Print | Product List | Glossary On
Versions: 1 2 3 4 5 6 7 8 9 10 11 12 13 14 15 16 17 18 19 20 21 22 23 24 25 26 27 28 29 30 31 32 33 34 35 36 37 38 39 40 41 42 43 44 45 46 47 48 49 50
000
ASCA44 KEWX 232212
RWRMX

LATIN AMERICA AND CARIBBEAN REGIONAL WEATHER ROUNDUP
NATIONAL WEATHER SERVICE AUSTIN/SAN ANTONIO TX
400 PM CST MON JAN 23 2017

NOTE: "FAIR" INDICATED FEW OR NO CLOUDS BELOW 12,000 FEET WITH NO
SIGNIFICANT WEATHER AND/OR OBSTRUCTIONS TO VISIBILITY.

BAJA CALIFORNIA

CITY           SKY/WX    TMP DP  RH WIND       PRES   REMARKS
LORETO         SUNNY     77  54  44 NE18      29.86F
LA PAZ         SUNNY     77  50  38 N8        29.88F
MEXICALI       PTSUNNY   61  37  41 W23       29.82F
S.J. DEL CABO  SUNNY     79  45  29 E15       29.84F
TIJUANA        CLOUDY    55  43  62 S10       29.90F

NORTHWESTERN MEXICO

CITY           SKY/WX    TMP DP  RH WIND       PRES   REMARKS
CULIACAN       SUNNY     86  55  35 W9        29.76F
DURANGO        SUNNY     75  10   8 CALM      30.14F
GUAYMAS        SUNNY     75  45  33 W12       29.85F
HERMOSILLO     MOSUNNY   79  34  19 SW6       29.91F
CD. JUAREZ     MOSUNNY   68  34  28 SW12      29.81F
LOS MOCHIS     SUNNY     82  41  23 NW21      29.83F
OBREGON        SUNNY     81  36  19 W13       29.85F

NORTHEASTERN MEXICO

CITY           SKY/WX    TMP DP  RH WIND       PRES   REMARKS
CHIHUAHUA      SUNNY     81  30  16 SW18      29.92F
MATAMOROS      SUNNY     81  27  13 CALM      29.93F
MONCLOVA         N/A    N/A N/A N/A MISG        N/A
MONTERREY      SUNNY     81  25  12 SE8       29.91F
NUEVO LAREDO   SUNNY     82  28  14 CALM      29.87F
PIEDRAS NEGRAS   N/A    N/A N/A N/A MISG        N/A
REYNOSA        SUNNY     79  25  13 SE2       29.90F
SALTILLO       SUNNY     77  39  25 N7        30.11F
TORREON        SUNNY     79  28  15 E3        30.02F
CD. VICTORIA   SUNNY     82  46  28 S12       29.93F

WESTERN MEXICO

CITY           SKY/WX    TMP DP  RH WIND       PRES   REMARKS
AGUASCALIENTES SUNNY     79   5   6 N8        30.15F
COLIMA         SUNNY     79  61  53 SW17      29.91S
DEL BAJIO      SUNNY     79  19  11 SE5       30.18F
GUADALAJARA    SUNNY     81  16   9 S3        30.07F
MANZANILLO     MOSUNNY   81  70  69 SE17      29.79F
MAZATLAN       SUNNY     81  61  50 W10       29.78F
P. VALLARTA    SUNNY     75  66  73 SW10      29.81F
URUAPAN        SUNNY     73  46  38 S12       30.10F
ZACATECAS      SUNNY     73  21  14 CALM      30.20F

CENTRAL MEXICO

CITY           SKY/WX    TMP DP  RH WIND       PRES   REMARKS
CUERNAVACA     SUNNY     86  36  16 S6        30.01F
MEXICO CITY    SUNNY     75   9   7 N6        30.21F
MORELIA        SUNNY     79  25  13 CALM      30.12F
POZA RICA      SUNNY     82  63  51 E7        30.02S
PUEBLA         SUNNY     75  10   8 SE8       30.22F
QUERETARO      SUNNY     79  16   9 E7        30.19F
S. LUIS POTOSI SUNNY     75   3   6 N5        30.15F
TAMPICO        SUNNY     77  45  31 E9        29.98F
TOLUCA         SUNNY     72  23  16 S8        30.28F

SOUTHERN MEXICO

CITY           SKY/WX    TMP DP  RH WIND       PRES   REMARKS
ACAPULCO       SUNNY     84  73  70 S7        29.84F HX  91
B. DE HUATULCO MOSUNNY   86  72  62 SW12      29.90  HX  92
OAXACA         SUNNY     81  36  19 S8        30.09F
P. ESCONDIDO   SUNNY     84  72  65 SW12      29.99S
VERACRUZ       MOSUNNY   79  59  50 E9        30.00F
ZIHUATANEJO    PTSUNNY   86  73  66 S10       29.85F HX  93

YUCATAN PENINSULA

CITY           SKY/WX    TMP DP  RH WIND       PRES   REMARKS
CAMPECHE       MOSUNNY   77  63  61 W12G23    29.95F
CANCUN         SUNNY     77  57  50 NW16      29.89R
CHETUMAL       SUNNY     86  57  37 NW7       29.88F
CD. DEL CARMEN MOSUNNY   79  59  50 NW5       29.99F
COZUMEL        SUNNY     82  61  47 N15       29.86S
MERIDA         MOSUNNY   79  54  41 W17       29.96R
MINATITLAN     MOSUNNY   77  68  73 N12       30.00F
TAPACHULA      MOSUNNY   86  73  66 SW9       29.81S HX  93
TUX. GUTIERREZ SUNNY     82  48  30 W16G28    29.92F
VILLAHERMOSA   MOSUNNY   81  57  44 NE8       30.01F

CENTRAL AMERICA

CITY           SKY/WX    TMP DP  RH WIND       PRES   REMARKS
BELIZE CITY      N/A     86  64  48 NW10      29.89S
MANAGUA        PTCLDY    90  68  48 NW12      29.77S HX  93

CARIBBEAN

CITY           SKY/WX    TMP DP  RH WIND       PRES   REMARKS
ARUBA          PTCLDY    82  73  74 E14       29.86S
CURACAO        PTCLDY    81  72  74 E10       29.89S
KINGSTON       PTSUNNY   82  70  65 SW9       29.86R
NASSAU         PTCLDY    75  63  64 W22       29.63R
SAN JUAN       PTCLDY    82  63  51 S8        29.90S
SANTO DOMINGO  PTCLDY    81  68  65 S12       29.83S
ST. CROIX      CLEAR     79  64  61 S5        29.94
ST. KITTS      PTCLDY    79  68  69 CALM      29.94R
ST. THOMAS     MOCLDY    79  66  65 S8        29.92

$$





USA.gov is the U.S. government's official web portal to all federal, state and local government web resources and services.